Location: Blachownia
(50.7807°N, 18.9578°E)
Time: 19:23:18
(UTC+01:00)

ISS - Visible Passes

Search period start: 22 February 2018 00:00
Search period end: 04 March 2018 00:00
Orbit: 402 x 407 km, 51.6° (Epoch: 23 February)

Date Brightness Start Highest point End Pass type
(mag) Time Alt. Az. Time Alt. Az. Time Alt. Az.
27 Feb -0.9 05:34:26 10° S 05:36:19 15° SE 05:38:13 10° ESE visible
01 Mar -1.9 05:25:07 10° SSW 05:27:54 26° SSE 05:30:42 10° E visible
02 Mar -1.3 04:34:05 12° S 04:35:47 17° SE 04:38:00 10° E visible
03 Mar -0.7 03:44:04 10° SE 03:44:04 10° SE 03:44:26 10° ESE visible
03 Mar -2.9 05:16:44 12° SW 05:19:32 44° SSE 05:22:41 10° E visible
